weather.gov     
National Weather Service

Terminal Aerodrome Forecast
NWS Homepage
This page is being discontinued on March 12, 2014.
The same data is available at this site. Please update your bookmarks.
Thank you, and we apologize for the inconvenience.
Please send an email to SR-SRH.Webmaster@noaa.gov with any concerns.


Current Version
Previous Version:    01  02  03  04  05  06  07  08  09  10  11  12  13  14  
[Printable]
289
FTUS41 KGYX 011021 AAB
TAFPWM
TAF AMD
KPWM 011021Z 0110/0206 01010G17KT P6SM -RA OVC025
     FM011200 01013KT P6SM OVC025
     FM011500 01015G23KT 6SM -RA OVC015
     FM011800 01018G25KT 4SM -RA OVC015
     FM020300 35022G30KT 2SM -RA BR OVC007=




289
FTUS41 KGYX 011021 AAB
TAFPWM
TAF AMD
KPWM 011021Z 0110/0206 01010G17KT P6SM -RA OVC025
     FM011200 01013KT P6SM OVC025
     FM011500 01015G23KT 6SM -RA OVC015
     FM011800 01018G25KT 4SM -RA OVC015
     FM020300 35022G30KT 2SM -RA BR OVC007=


U.S. Dept. of Commerce
NOAA National Weather Service
1325 East West Highway
Silver Spring, MD 20910
E-mail: w-nws.webmaster@noaa.gov
Page last modified: May 16, 2007
NATIONAL WEATHER SERVICE: for Safety, for Work, for Fun - FOR LIFE